,,,PA_Meas_PMT16A,,PR_Meas_QMR101_102,,RH_Meas_QMH101,,SR_Meas_QMS101,,TA_Meas_QMH101,,GenWind,,GenWind,
date,time,status,PA,status,PR,status,RH,status,SR,status,TA,status,DirAvg,status,SpdAvg,
2010-11-28, 00:00:04,VALID,1003.12,VALID,0,INVALID,163.716,VALID,0,VALID,23.546,VALID,360,VALID,0,
2010-11-28, 00:01:04,VALID,1003.14,VALID,0,INVALID,163.731,VALID,0.100563,VALID,23.5655,VALID,360,VALID,0,
2010-11-28, 00:02:04,VALID,1003.11,VALID,0,INVALID,163.739,VALID,0.100563,VALID,23.5443,VALID,360,VALID,0,
2010-11-28, 00:03:04,VALID,1003.11,VALID,0,INVALID,163.693,VALID,0.100563,VALID,23.585,VALID,360,VALID,0,
2010-11-28, 00:04:04,VALID,1003.14,VALID,0,INVALID,163.708,VALID,0.100563,VALID,23.5443,VALID,360,VALID,0,
2010-11-28, 00:05:04,VALID,1003.15,VALID,0,INVALID,163.716,VALID,0,VALID,23.546,VALID,360,VALID,0,
2010-11-28, 00:06:04,VALID,1003.12,VALID,0,INVALID,163.739,VALID,0.100563,VALID,23.5655,VALID,360,VALID,0,
2010-11-28, 00:07:04,VALID,1003.07,VALID,0,INVALID,163.731,VALID,0.100563,VALID,23.5443,VALID,360,VALID,0,
2010-11-28, 00:08:04,VALID,1003.05,VALID,0,INVALID,163.716,VALID,0.100563,VALID,23.5266,VALID,360,VALID,0,
2010-11-28, 00:09:04,VALID,1003.04,VALID,0,INVALID,163.739,VALID,0.100563,VALID,23.5248,VALID,360,VALID,0,
2010-11-28, 00:10:04,VALID,1003.04,VALID,0,INVALID,163.716,VALID,0,VALID,23.5266,VALID,360,VALID,0,
2010-11-28, 00:11:04,VALID,1003,VALID,0,INVALID,163.723,VALID,0,VALID,23.5071,VALID,360,VALID,0,
2010-11-28, 00:12:04,VALID,1003,VALID,0,INVALID,163.731,VALID,0,VALID,23.5284,VALID,360,VALID,0,
2010-11-28, 00:13:04,VALID,1003,VALID,0,INVALID,163.746,VALID,0,VALID,23.5284,VALID,360,VALID,0,
2010-11-28, 00:14:04,VALID,1003.02,VALID,0,INVALID,163.723,VALID,0,VALID,23.5071,VALID,360,VALID,0,
2010-11-28, 00:15:04,VALID,1002.99,VALID,0,INVALID,163.731,VALID,0,VALID,23.4682,VALID,360,VALID,0,
2010-11-28, 00:16:04,VALID,1002.99,VALID,0,INVALID,163.746,VALID,0,VALID,23.4682,VALID,360,VALID,0,
2010-11-28, 00:17:04,VALID,1002.98,VALID,0,INVALID,163.731,VALID,0,VALID,23.4894,VALID,360,VALID,0,
2010-11-28, 00:18:04,VALID,1002.96,VALID,0,INVALID,163.731,VALID,0,VALID,23.4682,VALID,356,VALID,0,
2010-11-28, 00:19:04,VALID,1002.97,VALID,0,INVALID,163.739,VALID,0,VALID,23.47,VALID,335,VALID,0,
2010-11-28, 00:20:04,VALID,1002.95,VALID,0,INVALID,163.746,VALID,0,VALID,23.4682,VALID,336,VALID,0.526172,
2010-11-28, 00:21:04,VALID,1002.94,VALID,0,INVALID,163.746,VALID,0,VALID,23.4487,VALID,347,VALID,0.503516,
2010-11-28, 00:22:04,VALID,1002.9,VALID,0,INVALID,163.731,VALID,0,VALID,23.4293,VALID,347,VALID,0.571484,
2010-11-28, 00:23:04,VALID,1002.86,VALID,0,INVALID,163.746,VALID,0,VALID,23.4487,VALID,347,VALID,0.620703,
2010-11-28, 00:24:04,VALID,1002.91,VALID,0,INVALID,163.731,VALID,0,VALID,23.3886,VALID,360,VALID,0.674609,
2010-11-28, 00:25:04,VALID,1002.91,VALID,0,INVALID,163.754,VALID,0.100563,VALID,23.447,VALID,14,VALID,0.575,
2010-11-28, 00:26:04,VALID,1002.88,VALID,0,INVALID,163.723,VALID,0.100563,VALID,23.4664,VALID,14,VALID,0.425781,
2010-11-28, 00:27:04,VALID,1002.91,VALID,0,INVALID,163.739,VALID,0.100563,VALID,23.447,VALID,14,VALID,0.491016,
2010-11-28, 00:28:04,VALID,1002.91,VALID,0,INVALID,163.723,VALID,0.100563,VALID,23.4275,VALID,12,VALID,0.492578,
2010-11-28, 00:29:04,VALID,1002.89,VALID,0,INVALID,163.723,VALID,0.100563,VALID,23.447,VALID,12,VALID,0.407422,
2010-11-28, 00:30:04,VALID,1002.88,VALID,0,INVALID,163.723,VALID,0.100563,VALID,23.4487,VALID,12,VALID,0.328906,
2010-11-28, 00:31:04,VALID,1002.86,VALID,0,INVALID,163.731,VALID,0,VALID,23.447,VALID,12,VALID,0.427734,
2010-11-28, 00:32:04,VALID,1002.85,VALID,0,INVALID,163.731,VALID,0.100563,VALID,23.4275,VALID,12,VALID,0.421484,
2010-11-28, 00:33:04,VALID,1002.82,VALID,0,INVALID,163.746,VALID,0.100563,VALID,23.4293,VALID,7,VALID,0.601172,
2010-11-28, 00:34:04,VALID,1002.79,VALID,0,INVALID,163.731,VALID,0,VALID,23.408,VALID,6,VALID,0.689062,
2010-11-28, 00:35:04,VALID,1002.78,VALID,0,INVALID,163.708,VALID,0.100563,VALID,23.3886,VALID,360,VALID,0.588281,
2010-11-28, 00:36:04,VALID,1002.76,VALID,0,INVALID,163.739,VALID,0.100563,VALID,23.4293,VALID,354,VALID,0.855859,
2010-11-28, 00:37:04,VALID,1002.72,VALID,0,INVALID,163.739,VALID,0.100563,VALID,23.4275,VALID,351,VALID,0.691797,
2010-11-28, 00:38:04,VALID,1002.75,VALID,0,INVALID,163.723,VALID,0.100563,VALID,23.4664,VALID,353,VALID,0.739453,
2010-11-28, 00:39:04,VALID,1002.72,VALID,0,INVALID,163.716,VALID,0,VALID,23.447,VALID,353,VALID,0.621484,
2010-11-28, 00:40:04,VALID,1002.72,VALID,0,INVALID,163.701,VALID,0,VALID,23.47,VALID,353,VALID,0.599219,
2010-11-28, 00:41:04,VALID,1002.7,VALID,0,INVALID,163.723,VALID,0,VALID,23.47,VALID,353,VALID,0.628516,
2010-11-28, 00:42:04,VALID,1002.69,VALID,0,INVALID,163.708,VALID,0,VALID,23.4894,VALID,353,VALID,0.667188,
2010-11-28, 00:43:04,VALID,1002.72,VALID,0,INVALID,163.731,VALID,0,VALID,23.4894,VALID,353,VALID,0.618359,
2010-11-28, 00:44:04,VALID,1002.7,VALID,0,INVALID,163.746,VALID,0,VALID,23.4682,VALID,352,VALID,0.573047,
2010-11-28, 00:45:04,VALID,1002.68,VALID,0,INVALID,163.731,VALID,0,VALID,23.4682,VALID,353,VALID,0.629297,
2010-11-28, 00:46:04,VALID,1002.68,VALID,0,INVALID,163.731,VALID,0,VALID,23.4894,VALID,353,VALID,0.681641,
2010-11-28, 00:47:04,VALID,1002.65,VALID,0,INVALID,163.731,VALID,0,VALID,23.5089,VALID,353,VALID,0.628516,
2010-11-28, 00:48:04,VALID,1002.63,VALID,0,INVALID,163.723,VALID,0,VALID,23.5089,VALID,353,VALID,0.731641,
2010-11-28, 00:49:04,VALID,1002.57,VALID,0,INVALID,163.701,VALID,0,VALID,23.4682,VALID,353,VALID,0.788672,
2010-11-28, 00:50:04,VALID,1002.56,VALID,0,INVALID,163.731,VALID,0,VALID,23.4877,VALID,352,VALID,0.747656,
2010-11-28, 00:51:04,VALID,1002.55,VALID,0,INVALID,163.739,VALID,0,VALID,23.4877,VALID,353,VALID,0.809375,
2010-11-28, 00:52:04,VALID,1002.53,VALID,0,INVALID,163.746,VALID,0,VALID,23.4877,VALID,355,VALID,0.686328,
2010-11-28, 00:53:04,VALID,1002.49,VALID,0,INVALID,163.731,VALID,0,VALID,23.5071,VALID,355,VALID,0.714453,
2010-11-28, 00:54:04,VALID,1002.46,VALID,0,INVALID,163.708,VALID,0,VALID,23.4877,VALID,355,VALID,0.635938,
2010-11-28, 00:55:04,VALID,1002.44,VALID,0,INVALID,163.716,VALID,0,VALID,23.5071,VALID,355,VALID,0.701953,
2010-11-28, 00:56:04,VALID,1002.42,VALID,0,INVALID,163.708,VALID,0,VALID,23.4664,VALID,355,VALID,0.642969,
2010-11-28, 00:57:04,VALID,1002.41,VALID,0,INVALID,163.731,VALID,0,VALID,23.4859,VALID,355,VALID,0.709375,
2010-11-28, 00:58:04,VALID,1002.4,VALID,0,INVALID,163.723,VALID,0.100563,VALID,23.4859,VALID,355,VALID,0.739453,
2010-11-28, 00:59:04,VALID,1002.39,VALID,0,INVALID,163.701,VALID,0.100563,VALID,23.4877,VALID,355,VALID,0.701563,
2010-11-28, 01:00:04,VALID,1002.37,VALID,0,INVALID,163.731,VALID,0.100563,VALID,23.4664,VALID,355,VALID,0.665625,
2010-11-28, 01:01:04,VALID,1002.36,VALID,0,INVALID,163.731,VALID,0,VALID,23.4682,VALID,355,VALID,0.596875,
2010-11-28, 01:02:04,VALID,1002.38,VALID,0,INVALID,163.723,VALID,0,VALID,23.4275,VALID,355,VALID,0.641016,
2010-11-28, 01:03:04,VALID,1002.35,VALID,0,INVALID,163.716,VALID,0.100563,VALID,23.4487,VALID,355,VALID,0.593359,
2010-11-28, 01:04:04,VALID,1002.34,VALID,0,INVALID,163.746,VALID,0.100563,VALID,23.4275,VALID,355,VALID,0.522266,
2010-11-28, 01:05:04,VALID,1002.33,VALID,0,INVALID,163.723,VALID,0.100563,VALID,23.4293,VALID,355,VALID,0.591797,
2010-11-28, 01:06:04,VALID,1002.32,VALID,0,INVALID,163.716,VALID,0,VALID,23.4293,VALID,355,VALID,0.442969,
2010-11-28, 01:07:04,VALID,1002.31,VALID,0,INVALID,163.708,VALID,0,VALID,23.4293,VALID,355,VALID,0.424219,
2010-11-28, 01:08:04,VALID,1002.31,VALID,0,INVALID,163.708,VALID,0,VALID,23.3886,VALID,355,VALID,0.327344,
2010-11-28, 01:09:04,VALID,1002.32,VALID,0,INVALID,163.739,VALID,0.100563,VALID,23.3886,VALID,355,VALID,0.337891,
2010-11-28, 01:10:04,VALID,1002.31,VALID,0,INVALID,163.762,VALID,0,VALID,23.3886,VALID,355,VALID,0.24375,
2010-11-28, 01:11:04,VALID,1002.28,VALID,0,INVALID,163.731,VALID,0,VALID,23.4098,VALID,355,VALID,0.375,
2010-11-28, 01:12:04,VALID,1002.28,VALID,0,INVALID,163.739,VALID,0,VALID,23.4293,VALID,355,VALID,0.316016,
2010-11-28, 01:13:04,VALID,1002.27,VALID,0,INVALID,163.746,VALID,0,VALID,23.4293,VALID,355,VALID,0.214062,
2010-11-28, 01:14:04,VALID,1002.26,VALID,0,INVALID,163.739,VALID,0,VALID,23.4682,VALID,355,VALID,0.378125,
2010-11-28, 01:15:04,VALID,1002.27,VALID,0,INVALID,163.746,VALID,0.100563,VALID,23.447,VALID,355,VALID,0.290625,
2010-11-28, 01:16:04,VALID,1002.26,VALID,0,INVALID,163.716,VALID,0,VALID,23.4877,VALID,355,VALID,0.229297,
2010-11-28, 01:17:04,VALID,1002.27,VALID,0,INVALID,163.716,VALID,0.100563,VALID,23.5071,VALID,355,VALID,0.245703,
2010-11-28, 01:18:04,VALID,1002.26,VALID,0,INVALID,163.708,VALID,0.100563,VALID,23.4859,VALID,355,VALID,0.291797,
2010-11-28, 01:19:04,VALID,1002.27,VALID,0,INVALID,163.731,VALID,0.100563,VALID,23.4859,VALID,355,VALID,0.221875,
2010-11-28, 01:20:04,VALID,1002.23,VALID,0,INVALID,163.716,VALID,0,VALID,23.5071,VALID,355,VALID,0.0210938,
2010-11-28, 01:21:04,VALID,1002.24,VALID,0,INVALID,163.701,VALID,0.100563,VALID,23.4682,VALID,355,VALID,0,
2010-11-28, 01:22:04,VALID,1002.18,VALID,0,INVALID,163.731,VALID,0,VALID,23.4682,VALID,355,VALID,0,
2010-11-28, 01:23:04,VALID,1002.15,VALID,0,INVALID,163.708,VALID,0,VALID,23.4487,VALID,355,VALID,0,
2010-11-28, 01:24:04,VALID,1002.11,VALID,0,INVALID,163.701,VALID,0,VALID,23.4664,VALID,355,VALID,0.210547,
2010-11-28, 01:25:04,VALID,1002.08,VALID,0,INVALID,163.754,VALID,0,VALID,23.4682,VALID,355,VALID,0.265234,
2010-11-28, 01:26:04,VALID,1002.04,VALID,0,INVALID,163.723,VALID,0,VALID,23.4894,VALID,355,VALID,0.365625,
2010-11-28, 01:27:04,VALID,1002.03,VALID,0,INVALID,163.701,VALID,0,VALID,23.4877,VALID,355,VALID,0.361328,
2010-11-28, 01:28:04,VALID,1002.01,VALID,0,INVALID,163.716,VALID,0,VALID,23.5089,VALID,355,VALID,0.205469,
2010-11-28, 01:29:04,VALID,1001.97,VALID,0,INVALID,163.716,VALID,0,VALID,23.5089,VALID,355,VALID,0.461719,
2010-11-28, 01:30:04,VALID,1001.94,VALID,0,INVALID,163.731,VALID,0,VALID,23.5071,VALID,355,VALID,0.39375,
2010-11-28, 01:31:04,VALID,1001.93,VALID,0,INVALID,163.731,VALID,0,VALID,23.5284,VALID,355,VALID,0.25,
2010-11-28, 01:32:04,VALID,1001.91,VALID,0,INVALID,163.716,VALID,0,VALID,23.5284,VALID,355,VALID,0.286328,
2010-11-28, 01:33:04,VALID,1001.91,VALID,0,INVALID,163.723,VALID,0,VALID,23.5284,VALID,355,VALID,0.305469,
2010-11-28, 01:34:04,VALID,1001.86,VALID,0,INVALID,163.716,VALID,0,VALID,23.5478,VALID,355,VALID,0.241406,
2010-11-28, 01:35:04,VALID,1001.89,VALID,0,INVALID,163.723,VALID,0,VALID,23.5089,VALID,355,VALID,0.167187,
2010-11-28, 01:36:04,VALID,1001.88,VALID,0,INVALID,163.716,VALID,0,VALID,23.4894,VALID,355,VALID,0.170312,
2010-11-28, 01:37:04,VALID,1001.85,VALID,0,INVALID,163.723,VALID,0,VALID,23.4293,VALID,355,VALID,0.224219,
2010-11-28, 01:38:04,VALID,1001.85,VALID,0,INVALID,163.716,VALID,0,VALID,23.4293,VALID,355,VALID,0.202734,
2010-11-28, 01:39:04,VALID,1001.85,VALID,0,INVALID,163.708,VALID,0,VALID,23.4098,VALID,355,VALID,0,
2010-11-28, 01:40:04,VALID,1001.86,VALID,0,INVALID,163.754,VALID,0.100563,VALID,23.4293,VALID,355,VALID,0,
2010-11-28, 01:41:04,VALID,1001.86,VALID,0,INVALID,163.739,VALID,0,VALID,23.4098,VALID,355,VALID,0.177734,
2010-11-28, 01:42:04,VALID,1001.87,VALID,0,INVALID,163.746,VALID,0.100563,VALID,23.4098,VALID,355,VALID,0.207813,
2010-11-28, 01:43:04,VALID,1001.88,VALID,0,INVALID,163.739,VALID,0.100563,VALID,23.3904,VALID,355,VALID,0.204688,
2010-11-28, 01:44:04,VALID,1001.85,VALID,0,INVALID,163.746,VALID,0.100563,VALID,23.3497,VALID,355,VALID,0,
2010-11-28, 01:45:04,VALID,1001.84,VALID,0,INVALID,163.739,VALID,0,VALID,23.3497,VALID,355,VALID,0,
2010-11-28, 01:46:04,VALID,1001.83,VALID,0,INVALID,163.739,VALID,0,VALID,23.3904,VALID,355,VALID,0,
2010-11-28, 01:47:04,VALID,1001.84,VALID,0,INVALID,163.746,VALID,0,VALID,23.4098,VALID,355,VALID,0.173438,
2010-11-28, 01:48:04,VALID,1001.8,VALID,0,INVALID,163.739,VALID,0,VALID,23.408,VALID,355,VALID,0.200391,
2010-11-28, 01:49:04,VALID,1001.78,VALID,0,INVALID,163.739,VALID,0,VALID,23.408,VALID,355,VALID,0.00195313,
2010-11-28, 01:50:04,VALID,1001.78,VALID,0,INVALID,163.746,VALID,0.100563,VALID,23.4293,VALID,355,VALID,0,
2010-11-28, 01:51:04,VALID,1001.74,VALID,0,INVALID,163.754,VALID,0,VALID,23.408,VALID,355,VALID,0,
2010-11-28, 01:52:04,VALID,1001.72,VALID,0,INVALID,163.731,VALID,0.100563,VALID,23.3886,VALID,355,VALID,0,
2010-11-28, 01:53:04,VALID,1001.74,VALID,0,INVALID,163.731,VALID,0.100563,VALID,23.4098,VALID,355,VALID,0,
2010-11-28, 01:54:04,VALID,1001.74,VALID,0,INVALID,163.739,VALID,0.100563,VALID,23.3691,VALID,355,VALID,0,
2010-11-28, 01:55:04,VALID,1001.73,VALID,0,INVALID,163.762,VALID,0,VALID,23.3709,VALID,355,VALID,0,
2010-11-28, 01:56:04,VALID,1001.73,VALID,0,INVALID,163.754,VALID,0,VALID,23.4116,VALID,355,VALID,0.300391,
2010-11-28, 01:57:04,VALID,1001.73,VALID,0,INVALID,163.731,VALID,0,VALID,23.3921,VALID,355,VALID,0.355859,
2010-11-28, 01:58:04,VALID,1001.71,VALID,0,INVALID,163.739,VALID,0,VALID,23.3514,VALID,355,VALID,0.173047,
2010-11-28, 01:59:04,VALID,1001.74,VALID,0,INVALID,163.701,VALID,0,VALID,23.3125,VALID,355,VALID,0.250391,
2010-11-28, 02:00:04,VALID,1001.75,VALID,0,INVALID,163.716,VALID,0,VALID,23.2931,VALID,355,VALID,0.352734,
2010-11-28, 02:01:04,VALID,1001.75,VALID,0,INVALID,163.754,VALID,0,VALID,23.2541,VALID,355,VALID,0.355859,
2010-11-28, 02:02:04,VALID,1001.75,VALID,0,INVALID,163.746,VALID,0,VALID,23.2559,VALID,355,VALID,0.311328,
2010-11-28, 02:03:04,VALID,1001.78,VALID,0,INVALID,163.746,VALID,0,VALID,23.2559,VALID,355,VALID,0.286719,
2010-11-28, 02:04:04,VALID,1001.78,VALID,0,INVALID,163.746,VALID,0,VALID,23.2152,VALID,355,VALID,0.235938,
2010-11-28, 02:05:04,VALID,1001.77,VALID,0,INVALID,163.731,VALID,0,VALID,23.2347,VALID,355,VALID,0.258203,
2010-11-28, 02:06:04,VALID,1001.78,VALID,0,INVALID,163.754,VALID,0,VALID,23.2347,VALID,355,VALID,0.366016,
2010-11-28, 02:07:04,VALID,1001.81,VALID,0,INVALID,163.769,VALID,0,VALID,23.2347,VALID,355,VALID,0.405859,
2010-11-28, 02:08:04,VALID,1001.82,VALID,0,INVALID,163.739,VALID,0,VALID,23.2152,VALID,355,VALID,0.439844,
2010-11-28, 02:09:04,VALID,1001.86,VALID,0,INVALID,163.762,VALID,0,VALID,23.2559,VALID,355,VALID,0.49375,
2010-11-28, 02:10:04,VALID,1001.85,VALID,0,INVALID,163.746,VALID,0,VALID,23.2152,VALID,355,VALID,0.384766,
2010-11-28, 02:11:04,VALID,1001.84,VALID,0,INVALID,163.723,VALID,0,VALID,23.2152,VALID,355,VALID,0.31875,
2010-11-28, 02:12:04,VALID,1001.87,VALID,0,INVALID,163.754,VALID,0,VALID,23.2541,VALID,355,VALID,0.176563,
2010-11-28, 02:13:04,VALID,1001.84,VALID,0,INVALID,163.754,VALID,0,VALID,23.3143,VALID,355,VALID,0.132031,
2010-11-28, 02:14:04,VALID,1001.84,VALID,0,INVALID,163.746,VALID,0,VALID,23.332,VALID,355,VALID,0.134766,
2010-11-28, 02:15:04,VALID,1001.84,VALID,0,INVALID,163.708,VALID,0,VALID,23.3921,VALID,355,VALID,0.0902344,
2010-11-28, 02:16:04,VALID,1001.87,VALID,0,INVALID,163.716,VALID,0,VALID,23.4098,VALID,355,VALID,0.226172,
2010-11-28, 02:17:04,VALID,1001.84,VALID,0,INVALID,163.716,VALID,0,VALID,23.4098,VALID,355,VALID,0.00117188,
2010-11-28, 02:18:04,VALID,1001.83,VALID,0,INVALID,163.731,VALID,0,VALID,23.4505,VALID,355,VALID,0.0398437,
2010-11-28, 02:19:04,VALID,1001.81,VALID,0,INVALID,163.746,VALID,0,VALID,23.4293,VALID,355,VALID,0,
2010-11-28, 02:20:04,VALID,1001.8,VALID,0,INVALID,163.723,VALID,0,VALID,23.4311,VALID,355,VALID,0,
2010-11-28, 02:21:04,VALID,1001.8,VALID,0,INVALID,163.731,VALID,0,VALID,23.4116,VALID,355,VALID,0,
2010-11-28, 02:22:04,VALID,1001.75,VALID,0,INVALID,163.716,VALID,0,VALID,23.4098,VALID,355,VALID,0,
2010-11-28, 02:23:04,VALID,1001.79,VALID,0,INVALID,163.716,VALID,0,VALID,23.4098,VALID,355,VALID,0,
2010-11-28, 02:24:04,VALID,1001.76,VALID,0,INVALID,163.723,VALID,0,VALID,23.4098,VALID,355,VALID,0.475391,
2010-11-28, 02:25:04,VALID,1001.77,VALID,0,INVALID,163.716,VALID,0.100563,VALID,23.3691,VALID,355,VALID,0.468359,
2010-11-28, 02:26:04,VALID,1001.79,VALID,0,INVALID,163.731,VALID,0.100563,VALID,23.3514,VALID,355,VALID,0.469141,
2010-11-28, 02:27:04,VALID,1001.81,VALID,0,INVALID,163.746,VALID,0.100563,VALID,23.2913,VALID,355,VALID,0.492578,
2010-11-28, 02:28:04,VALID,1001.81,VALID,0,INVALID,163.746,VALID,0.100563,VALID,23.2931,VALID,355,VALID,0.501172,
2010-11-28, 02:29:04,VALID,1001.81,VALID,0,INVALID,163.739,VALID,0.100563,VALID,23.2524,VALID,355,VALID,0.435156,
2010-11-28, 02:30:04,VALID,1001.83,VALID,0,INVALID,163.754,VALID,0.100563,VALID,23.2347,VALID,355,VALID,0.437891,
2010-11-28, 02:31:04,VALID,1001.85,VALID,0,INVALID,163.754,VALID,0,VALID,23.2134,VALID,355,VALID,0.379687,
2010-11-28, 02:32:04,VALID,1001.82,VALID,0,INVALID,163.739,VALID,0.100563,VALID,23.2524,VALID,355,VALID,0.252344,
2010-11-28, 02:33:04,VALID,1001.83,VALID,0,INVALID,163.708,VALID,0.100563,VALID,23.3514,VALID,355,VALID,0.237891,
2010-11-28, 02:34:04,VALID,1001.83,VALID,0,INVALID,163.739,VALID,0.100563,VALID,23.3904,VALID,355,VALID,0,
2010-11-28, 02:35:04,VALID,1001.82,VALID,0,INVALID,163.731,VALID,0.100563,VALID,23.4293,VALID,355,VALID,0,
2010-11-28, 02:36:04,VALID,1001.82,VALID,0,INVALID,163.731,VALID,0.100563,VALID,23.4293,VALID,355,VALID,0,
2010-11-28, 02:37:04,VALID,1001.83,VALID,0,INVALID,163.701,VALID,0.100563,VALID,23.4664,VALID,355,VALID,0.217578,
2010-11-28, 02:38:04,VALID,1001.83,VALID,0,INVALID,163.746,VALID,0.100563,VALID,23.5266,VALID,355,VALID,0.216016,
2010-11-28, 02:39:04,VALID,1001.82,VALID,0,INVALID,163.731,VALID,0.100563,VALID,23.4859,VALID,355,VALID,0.117578,
2010-11-28, 02:40:04,VALID,1001.81,VALID,0,INVALID,163.708,VALID,0,VALID,23.5071,VALID,355,VALID,0.00742187,
2010-11-28, 02:41:04,VALID,1001.78,VALID,0,INVALID,163.701,VALID,0,VALID,23.4682,VALID,355,VALID,0,
2010-11-28, 02:42:04,VALID,1001.74,VALID,0,INVALID,163.746,VALID,0,VALID,23.4682,VALID,355,VALID,0,
2010-11-28, 02:43:04,VALID,1001.77,VALID,0,INVALID,163.739,VALID,0,VALID,23.4293,VALID,355,VALID,0.00664063,
2010-11-28, 02:44:04,VALID,1001.77,VALID,0,INVALID,163.716,VALID,0,VALID,23.4116,VALID,355,VALID,0.282422,
2010-11-28, 02:45:04,VALID,1001.78,VALID,0,INVALID,163.731,VALID,0,VALID,23.3514,VALID,355,VALID,0.317187,
2010-11-28, 02:46:04,VALID,1001.79,VALID,0,INVALID,163.746,VALID,0,VALID,23.3125,VALID,355,VALID,0.451172,
2010-11-28, 02:47:04,VALID,1001.79,VALID,0,INVALID,163.754,VALID,0,VALID,23.3125,VALID,355,VALID,0.332422,
2010-11-28, 02:48:04,VALID,1001.8,VALID,0,INVALID,163.739,VALID,0,VALID,23.3337,VALID,355,VALID,0.296094,
2010-11-28, 02:49:04,VALID,1001.79,VALID,0,INVALID,163.731,VALID,0,VALID,23.2931,VALID,355,VALID,0.271875,
2010-11-28, 02:50:04,VALID,1001.8,VALID,0,INVALID,163.723,VALID,0,VALID,23.3337,VALID,355,VALID,0.279297,
2010-11-28, 02:51:04,VALID,1001.8,VALID,0,INVALID,163.746,VALID,0,VALID,23.3143,VALID,355,VALID,0.192188,
2010-11-28, 02:52:04,VALID,1001.79,VALID,0,INVALID,163.731,VALID,0,VALID,23.2718,VALID,355,VALID,0.330859,
2010-11-28, 02:53:04,VALID,1001.8,VALID,0,INVALID,163.723,VALID,0,VALID,23.3125,VALID,355,VALID,0.455469,
2010-11-28, 02:54:04,VALID,1001.8,VALID,0,INVALID,163.754,VALID,0,VALID,23.332,VALID,355,VALID,0.278906,
2010-11-28, 02:55:04,VALID,1001.79,VALID,0,INVALID,163.723,VALID,0,VALID,23.3727,VALID,355,VALID,0.362891,
2010-11-28, 02:56:04,VALID,1001.8,VALID,0,INVALID,163.746,VALID,0,VALID,23.3921,VALID,355,VALID,0.476172,
2010-11-28, 02:57:04,VALID,1001.8,VALID,0,INVALID,163.739,VALID,0,VALID,23.3904,VALID,355,VALID,0.378125,
2010-11-28, 02:58:04,VALID,1001.83,VALID,0,INVALID,163.723,VALID,0,VALID,23.4505,VALID,355,VALID,0.39375,
2010-11-28, 02:59:04,VALID,1001.85,VALID,0,INVALID,163.716,VALID,0,VALID,23.4311,VALID,355,VALID,0.355078,
2010-11-28, 03:00:04,VALID,1001.85,VALID,0,INVALID,163.739,VALID,0,VALID,23.4098,VALID,355,VALID,0.293359,
2010-11-28, 03:01:04,VALID,1001.83,VALID,0,INVALID,163.731,VALID,0,VALID,23.3709,VALID,355,VALID,0.342578,
2010-11-28, 03:02:04,VALID,1001.82,VALID,0,INVALID,163.739,VALID,0,VALID,23.3709,VALID,355,VALID,0.324609,
2010-11-28, 03:03:04,VALID,1001.8,VALID,0,INVALID,163.754,VALID,0,VALID,23.332,VALID,355,VALID,0.2375,
2010-11-28, 03:04:04,VALID,1001.8,VALID,0,INVALID,163.754,VALID,0,VALID,23.3514,VALID,355,VALID,0.329688,
2010-11-28, 03:05:04,VALID,1001.76,VALID,0,INVALID,163.746,VALID,0,VALID,23.3337,VALID,355,VALID,0.282031,
2010-11-28, 03:06:04,VALID,1001.79,VALID,0,INVALID,163.708,VALID,0,VALID,23.3532,VALID,355,VALID,0.344531,
2010-11-28, 03:07:04,VALID,1001.83,VALID,0,INVALID,163.731,VALID,0,VALID,23.3532,VALID,355,VALID,0.417578,
2010-11-28, 03:08:04,VALID,1001.84,VALID,0,INVALID,163.731,VALID,0,VALID,23.3532,VALID,355,VALID,0.444531,
2010-11-28, 03:09:04,VALID,1001.83,VALID,0,INVALID,163.739,VALID,0,VALID,23.3532,VALID,355,VALID,0.370703,
2010-11-28, 03:10:04,VALID,1001.86,VALID,0,INVALID,163.739,VALID,0,VALID,23.3514,VALID,355,VALID,0.285547,
2010-11-28, 03:11:04,VALID,1001.85,VALID,0,INVALID,163.716,VALID,0,VALID,23.3709,VALID,355,VALID,0.315234,
2010-11-28, 03:12:04,VALID,1001.89,VALID,0,INVALID,163.739,VALID,0,VALID,23.4116,VALID,355,VALID,0.452344,
2010-11-28, 03:13:04,VALID,1001.88,VALID,0,INVALID,163.739,VALID,0,VALID,23.4311,VALID,355,VALID,0.247266,
2010-11-28, 03:14:04,VALID,1001.92,VALID,0,INVALID,163.731,VALID,0,VALID,23.4311,VALID,355,VALID,0.0527344,
2010-11-28, 03:15:04,VALID,1001.91,VALID,0,INVALID,163.731,VALID,0,VALID,23.3904,VALID,355,VALID,0,
2010-11-28, 03:16:04,VALID,1001.96,VALID,0,INVALID,163.777,VALID,0,VALID,23.3709,VALID,355,VALID,0,
2010-11-28, 03:17:04,VALID,1002,VALID,0,INVALID,163.716,VALID,0,VALID,23.3709,VALID,355,VALID,0,
2010-11-28, 03:18:04,VALID,1002.02,VALID,0,INVALID,163.746,VALID,0,VALID,23.3727,VALID,355,VALID,0,
2010-11-28, 03:19:04,VALID,1002.02,VALID,0,INVALID,163.723,VALID,0,VALID,23.3514,VALID,355,VALID,0,
2010-11-28, 03:20:04,VALID,1002.02,VALID,0,INVALID,163.731,VALID,0,VALID,23.3337,VALID,355,VALID,0,
2010-11-28, 03:21:04,VALID,1002.03,VALID,0,INVALID,163.731,VALID,0,VALID,23.3125,VALID,355,VALID,0,
2010-11-28, 03:22:04,VALID,1002.04,VALID,0,INVALID,163.754,VALID,0,VALID,23.3143,VALID,355,VALID,0,
2010-11-28, 03:23:04,VALID,1002.03,VALID,0,INVALID,163.754,VALID,0,VALID,23.3337,VALID,355,VALID,0,
2010-11-28, 03:24:04,VALID,1002.06,VALID,0,INVALID,163.762,VALID,0,VALID,23.2931,VALID,355,VALID,0,
2010-11-28, 03:25:04,VALID,1002.01,VALID,0,INVALID,163.731,VALID,0,VALID,23.3143,VALID,355,VALID,0,
2010-11-28, 03:26:04,VALID,1002.03,VALID,0,INVALID,163.746,VALID,0,VALID,23.3125,VALID,355,VALID,0,
2010-11-28, 03:27:04,VALID,1002,VALID,0,INVALID,163.746,VALID,0,VALID,23.3355,VALID,355,VALID,0,
2010-11-28, 03:28:04,VALID,1002.02,VALID,0,INVALID,163.754,VALID,0,VALID,23.3143,VALID,355,VALID,0,
2010-11-28, 03:29:04,VALID,1002.01,VALID,0,INVALID,163.731,VALID,0,VALID,23.3337,VALID,355,VALID,0,
2010-11-28, 03:30:04,VALID,1002.02,VALID,0,INVALID,163.723,VALID,0,VALID,23.3337,VALID,355,VALID,0,
2010-11-28, 03:31:04,VALID,1002.01,VALID,0,INVALID,163.739,VALID,0,VALID,23.2931,VALID,355,VALID,0,
2010-11-28, 03:32:04,VALID,1002.06,VALID,0,INVALID,163.739,VALID,0,VALID,23.3337,VALID,355,VALID,0,
2010-11-28, 03:33:04,VALID,1002.02,VALID,0,INVALID,163.723,VALID,0,VALID,23.2931,VALID,355,VALID,0,
2010-11-28, 03:34:04,VALID,1002.04,VALID,0,INVALID,163.746,VALID,0,VALID,23.2948,VALID,355,VALID,0,
2010-11-28, 03:35:04,VALID,1002.03,VALID,0,INVALID,163.754,VALID,0,VALID,23.2736,VALID,355,VALID,0,
2010-11-28, 03:36:04,VALID,1002.03,VALID,0,INVALID,163.739,VALID,0,VALID,23.2754,VALID,355,VALID,0,
2010-11-28, 03:37:04,VALID,1002.05,VALID,0,INVALID,163.754,VALID,0,VALID,23.2152,VALID,355,VALID,0,
2010-11-28, 03:38:04,VALID,1002.07,VALID,0,INVALID,163.762,VALID,0,VALID,23.2559,VALID,355,VALID,0,
2010-11-28, 03:39:04,VALID,1002.08,VALID,0,INVALID,163.746,VALID,0,VALID,23.2364,VALID,355,VALID,0,
2010-11-28, 03:40:04,VALID,1002.07,VALID,0,INVALID,163.762,VALID,0,VALID,23.2559,VALID,355,VALID,0,
2010-11-28, 03:41:04,VALID,1002.06,VALID,0,INVALID,163.746,VALID,0,VALID,23.2364,VALID,355,VALID,0,